Time,TemperatureF,DewpointF,PressureIn,WindDirection,WindDirectionDegrees,WindSpeedMPH,WindSpeedGustMPH,Humidity,HourlyPrecipIn,Conditions,Clouds,dailyrainin,SolarRadiationWatts/m^2,SoftwareType,DateUTC
2013-08-24 00:01:00,77.6,75.4,30.02,WNW,288,0.0,0.0,93,0.00,BKN,SKC,0.00,0.0,WeatherDisplay:10.37,2013-08-24 04:01:00,
2013-08-24 00:06:00,77.5,75.3,30.02,WNW,288,0.0,0.0,93,0.00,BKN,SKC,0.00,0.0,WeatherDisplay:10.37,2013-08-24 04:06:00,
2013-08-24 00:11:00,77.4,75.2,30.02,WNW,288,0.0,0.0,93,0.00,BKN,SKC,0.00,0.0,WeatherDisplay:10.37,2013-08-24 04:11:00,
2013-08-24 00:16:00,77.4,75.2,30.02,WNW,288,0.0,0.0,93,0.00,BKN,SKC,0.00,0.0,WeatherDisplay:10.37,2013-08-24 04:16:00,
2013-08-24 00:21:00,77.3,75.1,30.02,WNW,288,0.0,0.0,93,0.00,BKN,SKC,0.00,0.0,WeatherDisplay:10.37,2013-08-24 04:21:00,
2013-08-24 00:26:00,77.2,75.3,30.02,WNW,288,0.0,0.0,94,0.00,BKN,SKC,0.00,0.0,WeatherDisplay:10.37,2013-08-24 04:26:00,
2013-08-24 00:31:00,77.1,75.2,30.02,WNW,288,0.0,0.0,94,0.00,BKN,SKC,0.00,0.0,WeatherDisplay:10.37,2013-08-24 04:31:00,
2013-08-24 00:36:00,77.1,75.2,30.02,WNW,288,0.0,0.0,94,0.00,BKN,SKC,0.00,0.0,WeatherDisplay:10.37,2013-08-24 04:36:00,
2013-08-24 00:41:00,77.0,75.1,30.02,WNW,288,0.0,0.0,94,0.00,BKN,SKC,0.00,0.0,WeatherDisplay:10.37,2013-08-24 04:41:00,
2013-08-24 00:46:00,77.0,75.1,30.02,WNW,288,0.0,0.0,94,0.00,BKN,SKC,0.00,0.0,WeatherDisplay:10.37,2013-08-24 04:46:00,
2013-08-24 00:51:00,76.9,75.0,30.02,WNW,288,0.0,0.0,94,0.00,BKN,SKC,0.00,0.0,WeatherDisplay:10.37,2013-08-24 04:51:00,
2013-08-24 00:56:00,76.9,75.0,30.02,WNW,288,0.0,0.0,94,0.00,BKN,SKC,0.00,0.0,WeatherDisplay:10.37,2013-08-24 04:56:00,
2013-08-24 01:01:00,76.8,74.9,30.02,WNW,288,0.0,0.0,94,0.00,BKN,SKC,0.00,0.0,WeatherDisplay:10.37,2013-08-24 05:01:00,
2013-08-24 01:06:00,76.8,75.3,30.02,WNW,288,0.0,0.0,95,0.00,BKN,SKC,0.00,0.0,WeatherDisplay:10.37,2013-08-24 05:06:00,
2013-08-24 01:11:00,76.7,75.2,30.02,WNW,288,0.0,0.0,95,0.00,BKN,SKC,0.00,0.0,WeatherDisplay:10.37,2013-08-24 05:11:00,
2013-08-24 01:16:00,76.6,75.1,30.01,WNW,288,0.0,0.0,95,0.00,BKN,SKC,0.00,0.0,WeatherDisplay:10.37,2013-08-24 05:16:00,
2013-08-24 01:21:00,76.6,75.1,30.01,WNW,288,0.0,0.0,95,0.00,BKN,SKC,0.00,0.0,WeatherDisplay:10.37,2013-08-24 05:21:00,
2013-08-24 01:26:00,76.6,75.1,30.01,WNW,288,0.0,0.0,95,0.00,BKN,SKC,0.00,0.0,WeatherDisplay:10.37,2013-08-24 05:26:00,
2013-08-24 01:31:00,76.5,75.0,30.01,WNW,288,0.0,0.0,95,0.00,BKN,SKC,0.00,0.0,WeatherDisplay:10.37,2013-08-24 05:31:00,
2013-08-24 01:36:00,76.5,75.0,30.01,WNW,288,0.0,0.0,95,0.00,BKN,SKC,0.00,0.0,WeatherDisplay:10.37,2013-08-24 05:36:00,
2013-08-24 01:41:00,76.5,75.0,30.01,WNW,288,0.0,0.0,95,0.00,BKN,SKC,0.00,0.0,WeatherDisplay:10.37,2013-08-24 05:41:00,
2013-08-24 01:46:00,76.4,74.9,30.01,WNW,288,0.0,0.0,95,0.00,BKN,SKC,0.00,0.0,WeatherDisplay:10.37,2013-08-24 05:46:00,
2013-08-24 01:51:00,76.4,74.9,30.01,WNW,288,0.0,0.0,95,0.00,BKN,SKC,0.00,0.0,WeatherDisplay:10.37,2013-08-24 05:51:00,
2013-08-24 01:56:00,76.3,74.8,30.01,WNW,288,0.0,0.0,95,0.00,BKN,SKC,0.00,0.0,WeatherDisplay:10.37,2013-08-24 05:56:00,
2013-08-24 02:01:00,76.2,74.7,30.01,WNW,288,0.0,0.0,95,0.00,BKN,SKC,0.00,0.0,WeatherDisplay:10.37,2013-08-24 06:01:00,
2013-08-24 02:06:00,76.2,74.7,30.01,WNW,288,0.0,0.0,95,0.00,BKN,SKC,0.00,0.0,WeatherDisplay:10.37,2013-08-24 06:06:00,
2013-08-24 02:11:00,76.2,74.7,30.00,WNW,288,0.0,0.0,95,0.00,BKN,SKC,0.00,0.0,WeatherDisplay:10.37,2013-08-24 06:11:00,
2013-08-24 02:16:00,76.2,74.7,30.00,WNW,288,0.0,0.0,95,0.00,BKN,SKC,0.00,0.0,WeatherDisplay:10.37,2013-08-24 06:16:00,
2013-08-24 02:21:00,76.2,74.7,30.00,WNW,288,0.0,0.0,95,0.00,BKN,SKC,0.00,0.0,WeatherDisplay:10.37,2013-08-24 06:21:00,
2013-08-24 02:26:00,76.2,74.7,30.00,WNW,288,0.0,0.0,95,0.00,BKN,SKC,0.00,0.0,WeatherDisplay:10.37,2013-08-24 06:26:00,
2013-08-24 02:31:00,76.2,74.7,30.00,WNW,288,0.0,0.0,95,0.00,BKN,SKC,0.00,0.0,WeatherDisplay:10.37,2013-08-24 06:31:00,
2013-08-24 02:36:00,76.2,74.7,30.00,WNW,288,0.0,0.0,95,0.00,BKN,SKC,0.00,0.0,WeatherDisplay:10.37,2013-08-24 06:36:00,
2013-08-24 02:41:00,76.2,74.7,30.00,WNW,288,0.0,0.0,95,0.00,BKN,SKC,0.00,0.0,WeatherDisplay:10.37,2013-08-24 06:41:00,
2013-08-24 02:46:00,76.1,74.6,30.00,WNW,288,0.0,0.0,95,0.00,BKN,SKC,0.00,0.0,WeatherDisplay:10.37,2013-08-24 06:46:00,
2013-08-24 02:51:00,76.2,74.7,30.00,WNW,288,0.0,0.0,95,0.00,BKN,SKC,0.00,0.0,WeatherDisplay:10.37,2013-08-24 06:51:00,
2013-08-24 02:56:00,76.1,74.6,30.00,WNW,288,0.0,0.0,95,0.00,BKN,SKC,0.00,0.0,WeatherDisplay:10.37,2013-08-24 06:56:00,
2013-08-24 03:01:00,76.2,74.7,30.00,WNW,288,0.0,0.0,95,0.00,BKN,SKC,0.00,0.0,WeatherDisplay:10.37,2013-08-24 07:01:00,
2013-08-24 03:06:00,76.2,74.7,30.00,WNW,288,0.0,0.0,95,0.00,BKN,SKC,0.00,0.0,WeatherDisplay:10.37,2013-08-24 07:06:00,
2013-08-24 03:11:00,76.1,74.6,30.00,WNW,288,0.0,0.0,95,0.00,BKN,SKC,0.00,0.0,WeatherDisplay:10.37,2013-08-24 07:11:00,
2013-08-24 03:16:00,76.0,74.5,30.00,WNW,288,1.2,0.0,95,0.00,BKN,SKC,0.00,0.0,WeatherDisplay:10.37,2013-08-24 07:16:00,
2013-08-24 03:21:00,76.1,74.6,30.00,WNW,288,0.0,0.0,95,0.00,BKN,SKC,0.00,0.0,WeatherDisplay:10.37,2013-08-24 07:21:00,
2013-08-24 03:26:00,76.0,74.5,30.00,WNW,288,0.0,0.0,95,0.00,BKN,SKC,0.00,0.0,WeatherDisplay:10.37,2013-08-24 07:26:00,
2013-08-24 03:31:00,76.0,74.5,30.00,WNW,288,1.2,0.0,95,0.00,BKN,SKC,0.00,0.0,WeatherDisplay:10.37,2013-08-24 07:31:00,
2013-08-24 03:36:00,76.0,74.5,30.00,WNW,288,0.0,0.0,95,0.00,BKN,SKC,0.00,0.0,WeatherDisplay:10.37,2013-08-24 07:36:00,
2013-08-24 03:41:00,76.0,74.5,30.01,WNW,288,0.0,0.0,95,0.00,BKN,SKC,0.00,0.0,WeatherDisplay:10.37,2013-08-24 07:41:00,
2013-08-24 03:46:00,76.0,74.8,30.01,WNW,288,0.0,0.0,96,0.00,BKN,SKC,0.00,0.0,WeatherDisplay:10.37,2013-08-24 07:46:00,
2013-08-24 03:51:00,76.0,74.8,30.02,WNW,288,0.0,0.0,96,0.00,BKN,SKC,0.00,0.0,WeatherDisplay:10.37,2013-08-24 07:51:00,
2013-08-24 03:56:00,76.1,74.6,30.02,WNW,288,1.2,1.2,95,0.00,BKN,SKC,0.00,0.0,WeatherDisplay:10.37,2013-08-24 07:56:00,
2013-08-24 04:01:00,76.2,74.7,30.02,West,262,3.5,3.5,95,0.00,BKN,SKC,0.00,0.0,WeatherDisplay:10.37,2013-08-24 08:01:00,
2013-08-24 04:06:00,76.3,74.8,30.02,West,262,3.0,3.0,95,0.00,BKN,SKC,0.00,0.0,WeatherDisplay:10.37,2013-08-24 08:06:00,
2013-08-24 04:12:00,76.3,74.8,30.02,West,271,3.0,3.0,95,0.00,BKN,SKC,0.00,0.0,WeatherDisplay:10.37,2013-08-24 08:12:00,
2013-08-24 04:17:00,76.4,74.9,30.02,West,271,3.5,3.5,95,0.00,BKN,SKC,0.00,0.0,WeatherDisplay:10.37,2013-08-24 08:17:00,
2013-08-24 04:22:00,76.5,75.0,30.03,West,271,0.0,0.0,95,0.00,BKN,SKC,0.00,0.0,WeatherDisplay:10.37,2013-08-24 08:22:00,
2013-08-24 04:27:00,76.5,74.6,30.03,West,268,4.6,4.6,94,0.00,BKN,SKC,0.00,0.0,WeatherDisplay:10.37,2013-08-24 08:27:00,
2013-08-24 04:32:00,76.4,74.5,30.03,WNW,301,3.5,3.5,94,0.00,BKN,SKC,0.00,0.0,WeatherDisplay:10.37,2013-08-24 08:32:00,
2013-08-24 04:37:00,76.5,74.6,30.03,West,270,3.5,3.5,94,0.00,BKN,SKC,0.00,0.0,WeatherDisplay:10.37,2013-08-24 08:37:00,
2013-08-24 04:42:00,76.5,74.6,30.03,West,261,2.3,2.3,94,0.00,BKN,SKC,0.00,0.0,WeatherDisplay:10.37,2013-08-24 08:42:00,
2013-08-24 04:47:00,76.4,74.5,30.03,WNW,282,3.5,3.5,94,0.00,BKN,SKC,0.00,0.0,WeatherDisplay:10.37,2013-08-24 08:47:00,
2013-08-24 04:52:00,76.4,74.5,30.03,WNW,282,2.3,2.3,94,0.00,BKN,SKC,0.00,0.0,WeatherDisplay:10.37,2013-08-24 08:52:00,
2013-08-24 04:57:00,76.3,74.4,30.03,WNW,282,3.5,3.5,94,0.00,BKN,SKC,0.00,0.0,WeatherDisplay:10.37,2013-08-24 08:57:00,
2013-08-24 05:02:00,76.2,74.0,30.03,WNW,282,1.2,1.2,93,0.00,OVC,SKC,0.00,0.0,WeatherDisplay:10.37,2013-08-24 09:02:00,
2013-08-24 05:07:00,76.1,74.2,30.03,WNW,282,3.5,3.5,94,0.00,OVC,SKC,0.00,0.0,WeatherDisplay:10.37,2013-08-24 09:07:00,
2013-08-24 05:12:00,76.0,74.1,30.03,WNW,282,3.5,3.5,94,0.00,OVC,SKC,0.00,0.0,WeatherDisplay:10.37,2013-08-24 09:12:00,
2013-08-24 05:17:00,75.9,74.0,30.03,WNW,282,0.0,0.0,94,0.00,OVC,SKC,0.00,0.0,WeatherDisplay:10.37,2013-08-24 09:17:00,
2013-08-24 05:22:00,75.7,73.8,30.04,WNW,282,0.0,0.0,94,0.00,OVC,SKC,0.00,0.0,WeatherDisplay:10.37,2013-08-24 09:22:00,
2013-08-24 05:27:00,75.7,74.2,30.04,WNW,282,1.0,1.0,95,0.00,OVC,SKC,0.00,0.0,WeatherDisplay:10.37,2013-08-24 09:27:00,
2013-08-24 05:32:00,75.6,74.1,30.03,WNW,282,2.3,2.3,95,0.00,OVC,SKC,0.00,0.0,WeatherDisplay:10.37,2013-08-24 09:32:00,
2013-08-24 05:37:00,75.6,73.8,30.03,WNW,285,3.5,3.5,94,0.00,OVC,SKC,0.00,0.0,WeatherDisplay:10.37,2013-08-24 09:37:00,
2013-08-24 05:42:00,75.5,74.0,30.04,WNW,292,3.5,3.5,95,0.00,OVC,SKC,0.00,0.0,WeatherDisplay:10.37,2013-08-24 09:42:00,
2013-08-24 05:47:00,75.5,73.7,30.04,WNW,290,3.5,3.5,94,0.00,OVC,SKC,0.00,0.0,WeatherDisplay:10.37,2013-08-24 09:47:00,
2013-08-24 05:52:00,75.4,73.6,30.04,NW,313,3.5,3.5,94,0.00,OVC,SKC,0.00,0.0,WeatherDisplay:10.37,2013-08-24 09:52:00,
2013-08-24 05:57:00,75.3,73.5,30.04,WNW,298,3.5,3.5,94,0.00,OVC,SKC,0.00,0.0,WeatherDisplay:10.37,2013-08-24 09:57:00,
2013-08-24 06:02:00,75.3,73.5,30.04,West,277,3.5,3.5,94,0.00,BKN,SKC,0.00,0.0,WeatherDisplay:10.37,2013-08-24 10:02:00,
2013-08-24 06:07:00,75.3,73.8,30.04,West,279,3.5,3.5,95,0.00,BKN,SKC,0.00,0.0,WeatherDisplay:10.37,2013-08-24 10:07:00,
2013-08-24 06:12:00,75.2,73.7,30.04,WNW,284,1.2,1.2,95,0.00,BKN,SKC,0.00,0.0,WeatherDisplay:10.37,2013-08-24 10:12:00,
2013-08-24 06:17:00,75.2,73.7,30.04,WNW,284,3.5,3.5,95,0.00,BKN,SKC,0.00,0.0,WeatherDisplay:10.37,2013-08-24 10:17:00,
2013-08-24 06:22:00,75.1,73.6,30.04,WNW,284,0.0,0.0,95,0.00,BKN,SKC,0.00,0.0,WeatherDisplay:10.37,2013-08-24 10:22:00,
2013-08-24 06:27:00,75.1,73.6,30.05,WNW,284,1.2,1.2,95,0.00,BKN,SKC,0.00,0.0,WeatherDisplay:10.37,2013-08-24 10:27:00,
2013-08-24 06:32:00,75.2,73.7,30.05,West,277,2.3,2.3,95,0.00,BKN,SKC,0.00,0.0,WeatherDisplay:10.37,2013-08-24 10:32:00,
2013-08-24 06:37:00,75.1,73.6,30.05,West,269,0.0,0.0,95,0.00,BKN,SKC,0.00,0.0,WeatherDisplay:10.37,2013-08-24 10:37:00,
2013-08-24 06:42:00,75.1,73.6,30.05,West,269,2.3,2.3,95,0.00,BKN,SKC,0.00,0.0,WeatherDisplay:10.37,2013-08-24 10:42:00,
2013-08-24 06:47:00,75.1,73.6,30.05,West,279,3.5,3.5,95,0.00,BKN,SKC,0.00,0.0,WeatherDisplay:10.37,2013-08-24 10:47:00,
2013-08-24 06:52:00,75.1,73.9,30.05,West,263,3.5,3.5,96,0.00,BKN,SKC,0.00,0.0,WeatherDisplay:10.37,2013-08-24 10:52:00,
2013-08-24 06:57:00,75.1,73.9,30.06,NNW,343,1.0,1.0,96,0.00,BKN,SKC,0.00,0.0,WeatherDisplay:10.37,2013-08-24 10:57:00,
2013-08-24 07:02:00,75.2,74.0,30.06,West,271,3.5,3.5,96,0.00,-RA,SKC,0.00,0.0,WeatherDisplay:10.37,2013-08-24 11:02:00,
2013-08-24 07:07:00,75.2,74.0,30.06,West,272,3.5,3.5,96,0.00,-RA,SKC,0.00,5.0,WeatherDisplay:10.37,2013-08-24 11:07:00,
2013-08-24 07:12:00,75.2,74.0,30.06,West,260,1.2,0.0,96,0.00,-RA,SKC,0.00,9.0,WeatherDisplay:10.37,2013-08-24 11:12:00,
2013-08-24 07:17:00,75.3,74.1,30.06,NNW,339,2.3,2.3,96,0.00,-RA,SKC,0.00,16.0,WeatherDisplay:10.37,2013-08-24 11:17:00,
2013-08-24 07:22:00,75.3,74.1,30.06,East,98,2.3,2.3,96,0.00,-RA,SKC,0.00,21.0,WeatherDisplay:10.37,2013-08-24 11:22:00,
2013-08-24 07:27:00,75.4,73.9,30.07,NNW,348,3.5,3.5,95,0.00,-RA,SKC,0.00,25.0,WeatherDisplay:10.37,2013-08-24 11:27:00,
2013-08-24 07:32:00,75.3,73.8,30.07,NW,325,4.6,4.6,95,0.00,-RA,SKC,0.00,30.0,WeatherDisplay:10.37,2013-08-24 11:32:00,
2013-08-24 07:37:00,75.3,73.8,30.07,SSW,192,2.0,2.0,95,0.00,-RA,SKC,0.00,37.0,WeatherDisplay:10.37,2013-08-24 11:37:00,
2013-08-24 07:42:00,75.3,73.8,30.07,North,349,3.5,3.5,95,0.00,-RA,SKC,0.00,44.0,WeatherDisplay:10.37,2013-08-24 11:42:00,
2013-08-24 07:47:00,75.2,73.7,30.07,NNE,19,3.5,3.5,95,0.00,-RA,SKC,0.00,49.0,WeatherDisplay:10.37,2013-08-24 11:47:00,
2013-08-24 07:52:00,75.1,73.3,30.07,NW,321,3.5,3.5,94,0.00,-RA,SKC,0.00,49.0,WeatherDisplay:10.37,2013-08-24 11:52:00,
2013-08-24 07:57:00,75.1,73.3,30.08,ESE,109,3.5,3.5,94,0.00,-RA,SKC,0.00,51.0,WeatherDisplay:10.37,2013-08-24 11:57:00,
2013-08-24 08:02:00,75.0,73.2,30.08,NNW,342,3.0,3.0,94,0.00,-RA,SKC,0.00,60.0,WeatherDisplay:10.37,2013-08-24 12:02:00,
2013-08-24 08:07:00,75.0,73.2,30.08,North,360,3.5,3.5,94,0.00,-RA,SKC,0.00,67.0,WeatherDisplay:10.37,2013-08-24 12:07:00,
2013-08-24 08:12:00,74.9,73.1,30.09,NNW,338,3.5,3.5,94,0.00,-RA,SKC,0.00,69.0,WeatherDisplay:10.37,2013-08-24 12:12:00,
2013-08-24 08:17:00,74.9,73.1,30.09,East,92,5.8,5.8,94,0.00,-RA,SKC,0.00,67.0,WeatherDisplay:10.37,2013-08-24 12:17:00,
2013-08-24 08:22:00,74.9,73.1,30.10,East,80,3.5,3.5,94,0.00,-RA,SKC,0.00,63.0,WeatherDisplay:10.37,2013-08-24 12:22:00,
2013-08-24 08:27:00,74.9,73.1,30.10,North,350,4.6,4.6,94,0.00,-RA,SKC,0.00,32.0,WeatherDisplay:10.37,2013-08-24 12:27:00,
2013-08-24 08:32:00,74.8,72.6,30.10,NW,309,3.5,3.5,93,0.00,-RA,SKC,0.00,23.0,WeatherDisplay:10.37,2013-08-24 12:32:00,
2013-08-24 08:37:00,74.6,72.4,30.10,ESE,105,4.6,4.6,93,0.00,-RA,SKC,0.00,21.0,WeatherDisplay:10.37,2013-08-24 12:37:00,
2013-08-24 08:42:00,74.5,72.7,30.10,East,88,2.0,2.0,94,0.00,-RA,SKC,0.00,28.0,WeatherDisplay:10.37,2013-08-24 12:42:00,
2013-08-24 08:47:00,74.3,72.5,30.10,NNW,331,5.0,5.0,94,0.00,-RA,SKC,0.00,32.0,WeatherDisplay:10.37,2013-08-24 12:47:00,
2013-08-24 08:52:00,74.2,72.4,30.11,East,85,3.5,3.5,94,0.00,-RA,SKC,0.00,37.0,WeatherDisplay:10.37,2013-08-24 12:52:00,
2013-08-24 08:57:00,74.2,72.4,30.11,East,90,3.5,3.5,94,0.00,-RA,SKC,0.00,49.0,WeatherDisplay:10.37,2013-08-24 12:57:00,
2013-08-24 09:02:00,74.2,72.0,30.12,East,96,4.6,4.6,93,0.00,OVC,SKC,0.00,28.0,WeatherDisplay:10.37,2013-08-24 13:02:00,
2013-08-24 09:07:00,74.1,71.9,30.12,SW,221,4.6,4.6,93,0.00,OVC,SKC,0.02,30.0,WeatherDisplay:10.37,2013-08-24 13:07:00,
2013-08-24 09:12:00,73.9,72.1,30.12,SSE,161,2.3,2.3,94,0.03,RA,SKC,0.03,26.0,WeatherDisplay:10.37,2013-08-24 13:12:00,
2013-08-24 09:17:00,73.8,72.0,30.12,North,355,3.5,3.5,94,0.03,RA,SKC,0.03,25.0,WeatherDisplay:10.37,2013-08-24 13:17:00,
2013-08-24 09:22:00,73.6,71.8,30.12,SE,134,1.2,1.2,94,0.09,RA,SKC,0.10,25.0,WeatherDisplay:10.37,2013-08-24 13:22:00,
2013-08-24 09:27:00,73.4,71.6,30.12,East,80,2.3,2.3,94,0.14,RA,SKC,0.15,32.0,WeatherDisplay:10.37,2013-08-24 13:27:00,
2013-08-24 09:32:00,73.3,71.8,30.13,NW,321,3.5,3.5,95,0.15,RA,SKC,0.15,37.0,WeatherDisplay:10.37,2013-08-24 13:32:00,
2013-08-24 09:37:00,73.4,71.9,30.13,ENE,72,2.3,2.3,95,0.15,RA,SKC,0.15,23.0,WeatherDisplay:10.37,2013-08-24 13:37:00,
2013-08-24 09:42:00,73.4,71.9,30.13,NNE,31,3.5,3.5,95,0.15,OVC,SKC,0.15,23.0,WeatherDisplay:10.37,2013-08-24 13:42:00,
2013-08-24 09:47:00,73.4,71.9,30.13,West,261,3.0,3.0,95,0.15,OVC,SKC,0.15,33.0,WeatherDisplay:10.37,2013-08-24 13:47:00,
2013-08-24 09:52:00,73.4,71.9,30.13,ENE,58,2.3,2.3,95,0.15,OVC,SKC,0.15,39.0,WeatherDisplay:10.37,2013-08-24 13:52:00,
2013-08-24 09:58:00,73.4,71.9,30.13,East,79,2.3,2.3,95,0.15,OVC,SKC,0.15,37.0,WeatherDisplay:10.37,2013-08-24 13:58:00,
2013-08-24 10:03:00,73.4,71.9,30.14,NNW,331,4.6,4.6,95,0.15,OVC,SKC,0.15,40.0,WeatherDisplay:10.37,2013-08-24 14:03:00,
2013-08-24 10:08:00,73.4,71.9,30.14,ENE,69,3.5,3.5,95,0.13,OVC,SKC,0.15,49.0,WeatherDisplay:10.37,2013-08-24 14:08:00,
2013-08-24 10:13:00,73.5,72.0,30.14,ENE,65,2.3,2.3,95,0.12,OVC,SKC,0.15,53.0,WeatherDisplay:10.37,2013-08-24 14:13:00,
2013-08-24 10:18:00,73.5,72.0,30.14,NE,46,2.3,2.3,95,0.12,OVC,SKC,0.15,65.0,WeatherDisplay:10.37,2013-08-24 14:18:00,
2013-08-24 10:23:00,73.7,72.2,30.14,East,100,4.6,4.6,95,0.06,OVC,SKC,0.15,93.0,WeatherDisplay:10.37,2013-08-24 14:23:00,
2013-08-24 10:28:00,73.7,72.2,30.15,NE,53,3.5,3.5,95,0.01,OVC,SKC,0.15,62.0,WeatherDisplay:10.37,2013-08-24 14:28:00,
2013-08-24 10:33:00,73.9,72.4,30.15,ENE,58,3.5,3.5,95,0.00,OVC,SKC,0.15,169.0,WeatherDisplay:10.37,2013-08-24 14:33:00,
2013-08-24 10:38:00,74.1,72.6,30.15,East,92,1.2,1.2,95,0.00,OVC,SKC,0.15,141.0,WeatherDisplay:10.37,2013-08-24 14:38:00,
2013-08-24 10:43:00,74.2,72.4,30.15,ESE,105,8.1,8.1,94,0.00,OVC,SKC,0.15,216.0,WeatherDisplay:10.37,2013-08-24 14:43:00,
2013-08-24 10:48:00,74.4,72.2,30.15,East,86,5.8,5.8,93,0.00,OVC,SKC,0.15,383.0,WeatherDisplay:10.37,2013-08-24 14:48:00,
2013-08-24 10:53:00,75.1,72.9,30.15,East,80,5.0,5.0,93,0.00,OVC,SKC,0.15,306.0,WeatherDisplay:10.37,2013-08-24 14:53:00,
2013-08-24 10:58:00,75.2,72.4,30.16,NE,46,8.1,8.1,91,0.00,OVC,SKC,0.15,211.0,WeatherDisplay:10.37,2013-08-24 14:58:00,
2013-08-24 11:03:00,75.2,72.1,30.16,East,85,5.8,5.8,90,0.00,OVC,SKC,0.15,176.0,WeatherDisplay:10.37,2013-08-24 15:03:00,
2013-08-24 11:08:00,75.2,72.1,30.16,East,94,4.6,4.6,90,0.00,OVC,SKC,0.15,190.0,WeatherDisplay:10.37,2013-08-24 15:08:00,
2013-08-24 11:13:00,75.4,72.6,30.16,East,90,4.6,4.6,91,0.00,OVC,SKC,0.15,192.0,WeatherDisplay:10.37,2013-08-24 15:13:00,
2013-08-24 11:18:00,75.2,72.1,30.16,ESE,102,3.5,3.5,90,0.00,OVC,SKC,0.15,98.0,WeatherDisplay:10.37,2013-08-24 15:18:00,
2013-08-24 11:23:00,75.0,71.9,30.16,East,101,5.8,5.8,90,0.00,OVC,SKC,0.15,239.0,WeatherDisplay:10.37,2013-08-24 15:23:00,
2013-08-24 11:28:00,75.5,72.4,30.16,East,90,5.8,5.8,90,0.00,OVC,SKC,0.15,392.0,WeatherDisplay:10.37,2013-08-24 15:28:00,
2013-08-24 11:33:00,76.0,72.2,30.16,ESE,119,8.1,8.1,88,0.00,OVC,SKC,0.15,297.0,WeatherDisplay:10.37,2013-08-24 15:33:00,
2013-08-24 11:38:00,76.2,72.4,30.16,ESE,107,9.2,9.2,88,0.00,OVC,SKC,0.15,248.0,WeatherDisplay:10.37,2013-08-24 15:38:00,
2013-08-24 11:43:00,76.1,71.9,30.16,ENE,69,6.9,6.9,87,0.00,OVC,SKC,0.15,250.0,WeatherDisplay:10.37,2013-08-24 15:43:00,
2013-08-24 11:48:00,76.1,72.3,30.16,ENE,77,8.1,8.1,88,0.00,OVC,SKC,0.15,269.0,WeatherDisplay:10.37,2013-08-24 15:48:00,
2013-08-24 11:53:00,76.4,72.6,30.15,East,92,6.9,6.9,88,0.00,OVC,SKC,0.15,225.0,WeatherDisplay:10.37,2013-08-24 15:53:00,
2013-08-24 11:58:00,76.3,72.1,30.15,East,80,8.1,8.1,87,0.00,OVC,SKC,0.15,179.0,WeatherDisplay:10.37,2013-08-24 15:58:00,
2013-08-24 12:03:00,76.2,72.0,30.15,ESE,119,4.0,4.0,87,0.00,OVC,SKC,0.15,225.0,WeatherDisplay:10.37,2013-08-24 16:03:00,
2013-08-24 12:08:00,76.4,72.2,30.15,ENE,73,4.6,4.6,87,0.00,OVC,SKC,0.15,239.0,WeatherDisplay:10.37,2013-08-24 16:08:00,
2013-08-24 12:13:00,76.6,72.4,30.15,East,95,3.5,3.5,87,0.00,OVC,SKC,0.15,221.0,WeatherDisplay:10.37,2013-08-24 16:13:00,
2013-08-24 12:18:00,76.4,72.2,30.15,ESE,115,4.6,4.6,87,0.00,OVC,SKC,0.15,113.0,WeatherDisplay:10.37,2013-08-24 16:18:00,
2013-08-24 12:23:00,76.4,72.2,30.15,WSW,254,3.5,3.5,87,0.00,OVC,SKC,0.15,132.0,WeatherDisplay:10.37,2013-08-24 16:23:00,
2013-08-24 12:28:00,76.4,72.2,30.15,East,89,5.8,5.8,87,0.00,OVC,SKC,0.15,160.0,WeatherDisplay:10.37,2013-08-24 16:28:00,
2013-08-24 12:33:00,76.3,72.5,30.16,NW,311,3.5,3.5,88,0.00,OVC,SKC,0.15,127.0,WeatherDisplay:10.37,2013-08-24 16:33:00,
2013-08-24 12:38:00,76.2,72.4,30.16,East,99,3.5,3.5,88,0.00,OVC,SKC,0.15,272.0,WeatherDisplay:10.37,2013-08-24 16:38:00,
2013-08-24 12:43:00,76.6,72.8,30.16,NNW,338,3.5,3.5,88,0.00,OVC,SKC,0.15,325.0,WeatherDisplay:10.37,2013-08-24 16:43:00,
2013-08-24 12:48:00,76.7,72.5,30.16,ESE,103,4.6,4.6,87,0.00,OVC,SKC,0.15,471.0,WeatherDisplay:10.37,2013-08-24 16:48:00,
2013-08-24 12:53:00,77.2,73.0,30.16,WNW,292,3.0,3.0,87,0.00,OVC,SKC,0.15,541.0,WeatherDisplay:10.37,2013-08-24 16:53:00,
2013-08-24 12:58:00,77.8,73.3,30.16,NW,307,3.5,3.5,86,0.00,OVC,SKC,0.15,731.0,WeatherDisplay:10.37,2013-08-24 16:58:00,
2013-08-24 13:03:00,78.6,73.4,30.15,SSE,161,4.6,4.6,84,0.00,BKN,SKC,0.15,795.0,WeatherDisplay:10.37,2013-08-24 17:03:00,
2013-08-24 13:08:00,78.5,72.9,30.15,ENE,76,8.1,8.1,83,0.00,BKN,SKC,0.15,527.0,WeatherDisplay:10.37,2013-08-24 17:08:00,
2013-08-24 13:13:00,78.7,73.1,30.15,East,86,5.8,5.8,83,0.00,BKN,SKC,0.15,403.0,WeatherDisplay:10.37,2013-08-24 17:13:00,
2013-08-24 13:18:00,79.1,73.5,30.15,East,101,3.5,3.5,83,0.00,BKN,SKC,0.15,220.0,WeatherDisplay:10.37,2013-08-24 17:18:00,
2013-08-24 13:23:00,79.1,73.5,30.15,East,94,3.5,3.5,83,0.00,BKN,SKC,0.15,221.0,WeatherDisplay:10.37,2013-08-24 17:23:00,
2013-08-24 13:28:00,78.9,73.3,30.15,ENE,69,4.6,4.6,83,0.00,BKN,SKC,0.15,262.0,WeatherDisplay:10.37,2013-08-24 17:28:00,
2013-08-24 13:33:00,78.7,72.7,30.15,ENE,59,5.8,5.8,82,0.00,BKN,SKC,0.15,315.0,WeatherDisplay:10.37,2013-08-24 17:33:00,
2013-08-24 13:38:00,78.8,72.8,30.15,SE,133,4.6,4.6,82,0.00,BKN,SKC,0.15,332.0,WeatherDisplay:10.37,2013-08-24 17:38:00,
2013-08-24 13:43:00,79.2,73.2,30.15,ESE,105,9.2,9.2,82,0.00,BKN,SKC,0.15,854.0,WeatherDisplay:10.37,2013-08-24 17:43:00,
2013-08-24 13:48:00,80.3,73.9,30.15,SE,125,4.6,4.6,81,0.00,BKN,SKC,0.15,870.0,WeatherDisplay:10.37,2013-08-24 17:48:00,
2013-08-24 13:53:00,81.0,73.9,30.15,ENE,67,9.2,9.2,79,0.00,BKN,SKC,0.15,872.0,WeatherDisplay:10.37,2013-08-24 17:53:00,
2013-08-24 13:58:00,81.7,73.4,30.15,East,84,6.9,6.9,76,0.00,BKN,SKC,0.15,860.0,WeatherDisplay:10.37,2013-08-24 17:58:00,
2013-08-24 14:03:00,81.5,73.6,30.15,ESE,109,3.0,3.0,77,0.00,SCT,SKC,0.15,258.0,WeatherDisplay:10.37,2013-08-24 18:03:00,
2013-08-24 14:08:00,81.8,73.1,30.15,East,97,9.2,9.2,75,0.00,SCT,SKC,0.15,940.0,WeatherDisplay:10.37,2013-08-24 18:08:00,
2013-08-24 14:13:00,81.1,72.4,30.14,East,101,6.9,6.9,75,0.00,SCT,SKC,0.15,373.0,WeatherDisplay:10.37,2013-08-24 18:13:00,
2013-08-24 14:18:00,81.6,72.9,30.15,East,88,5.8,5.8,75,0.00,SCT,SKC,0.15,461.0,WeatherDisplay:10.37,2013-08-24 18:18:00,
2013-08-24 14:23:00,81.6,72.5,30.14,ENE,71,8.1,8.1,74,0.00,SCT,SKC,0.15,320.0,WeatherDisplay:10.37,2013-08-24 18:23:00,
2013-08-24 14:28:00,81.5,73.2,30.14,East,101,4.6,4.6,76,0.00,SCT,SKC,0.15,434.0,WeatherDisplay:10.37,2013-08-24 18:28:00,
2013-08-24 14:33:00,81.7,72.2,30.14,East,88,11.5,11.5,73,0.00,SCT,SKC,0.15,397.0,WeatherDisplay:10.37,2013-08-24 18:33:00,
2013-08-24 14:38:00,82.1,73.0,30.14,East,85,4.6,4.6,74,0.00,SCT,SKC,0.15,812.0,WeatherDisplay:10.37,2013-08-24 18:38:00,
2013-08-24 14:43:00,82.8,72.4,30.14,ENE,59,6.9,6.9,71,0.00,SCT,SKC,0.15,891.0,WeatherDisplay:10.37,2013-08-24 18:43:00,
2013-08-24 14:48:00,83.1,73.1,30.14,ENE,76,3.5,3.5,72,0.00,SCT,SKC,0.15,919.0,WeatherDisplay:10.37,2013-08-24 18:48:00,
2013-08-24 14:53:00,83.0,72.6,30.14,ENE,69,5.8,5.8,71,0.00,SCT,SKC,0.15,332.0,WeatherDisplay:10.37,2013-08-24 18:53:00,
2013-08-24 14:58:00,82.4,72.5,30.13,ESE,117,5.8,5.8,72,0.00,SCT,SKC,0.15,360.0,WeatherDisplay:10.37,2013-08-24 18:58:00,
2013-08-24 15:04:00,81.9,72.4,30.13,East,88,3.5,3.5,73,0.00,BKN,SKC,0.15,250.0,WeatherDisplay:10.37,2013-08-24 19:04:00,
2013-08-24 15:09:00,81.8,72.3,30.13,ESE,107,3.5,3.5,73,0.00,BKN,SKC,0.15,199.0,WeatherDisplay:10.37,2013-08-24 19:09:00,
2013-08-24 15:14:00,81.6,72.9,30.13,ENE,62,3.0,3.0,75,0.00,BKN,SKC,0.15,243.0,WeatherDisplay:10.37,2013-08-24 19:14:00,
2013-08-24 15:19:00,81.9,73.6,30.13,ESE,117,3.5,3.5,76,0.00,BKN,SKC,0.15,318.0,WeatherDisplay:10.37,2013-08-24 19:19:00,
2013-08-24 15:24:00,82.2,73.5,30.13,East,84,3.5,3.5,75,0.00,BKN,SKC,0.15,218.0,WeatherDisplay:10.37,2013-08-24 19:24:00,
2013-08-24 15:29:00,81.8,73.1,30.13,East,96,3.5,3.5,75,0.00,BKN,SKC,0.15,220.0,WeatherDisplay:10.37,2013-08-24 19:29:00,
2013-08-24 15:34:00,81.6,73.3,30.13,East,93,5.0,5.0,76,0.00,BKN,SKC,0.15,269.0,WeatherDisplay:10.37,2013-08-24 19:34:00,
2013-08-24 15:39:00,82.4,73.3,30.13,ENE,74,2.3,2.3,74,0.00,BKN,SKC,0.15,302.0,WeatherDisplay:10.37,2013-08-24 19:39:00,
2013-08-24 15:44:00,81.9,73.6,30.13,ENE,74,1.2,1.2,76,0.00,BKN,SKC,0.15,262.0,WeatherDisplay:10.37,2013-08-24 19:44:00,
2013-08-24 15:49:00,82.0,73.7,30.13,East,96,1.2,1.2,76,0.00,BKN,SKC,0.15,269.0,WeatherDisplay:10.37,2013-08-24 19:49:00,
2013-08-24 15:54:00,82.1,74.2,30.13,ESE,110,2.3,2.3,77,0.00,BKN,SKC,0.15,213.0,WeatherDisplay:10.37,2013-08-24 19:54:00,
2013-08-24 15:59:00,82.7,74.4,30.12,NW,312,3.5,3.5,76,0.00,BKN,SKC,0.15,784.0,WeatherDisplay:10.37,2013-08-24 19:59:00,
2013-08-24 16:04:00,83.2,74.0,30.13,East,83,3.5,3.5,74,0.00,BKN,SKC,0.15,373.0,WeatherDisplay:10.37,2013-08-24 20:04:00,
2013-08-24 16:09:00,82.3,72.8,30.13,East,96,2.3,2.3,73,0.00,BKN,SKC,0.15,95.0,WeatherDisplay:10.37,2013-08-24 20:09:00,
2013-08-24 16:14:00,81.4,73.1,30.12,East,79,3.5,3.5,76,0.00,BKN,SKC,0.15,105.0,WeatherDisplay:10.37,2013-08-24 20:14:00,
2013-08-24 16:19:00,81.2,73.3,30.13,East,101,2.3,2.3,77,0.00,BKN,SKC,0.15,98.0,WeatherDisplay:10.37,2013-08-24 20:19:00,
2013-08-24 16:24:00,80.9,73.4,30.13,WNW,284,2.3,2.3,78,0.00,BKN,SKC,0.15,97.0,WeatherDisplay:10.37,2013-08-24 20:24:00,
2013-08-24 16:29:00,80.7,74.0,30.13,ENE,57,2.3,2.3,80,0.00,BKN,SKC,0.15,142.0,WeatherDisplay:10.37,2013-08-24 20:29:00,
2013-08-24 16:34:00,80.5,73.8,30.13,ESE,103,2.3,2.3,80,0.00,BKN,SKC,0.15,165.0,WeatherDisplay:10.37,2013-08-24 20:34:00,
2013-08-24 16:39:00,80.9,74.1,30.13,NE,44,1.2,0.0,80,0.00,BKN,SKC,0.15,202.0,WeatherDisplay:10.37,2013-08-24 20:39:00,
2013-08-24 16:44:00,81.0,73.5,30.13,ENE,78,3.5,3.5,78,0.00,BKN,SKC,0.15,234.0,WeatherDisplay:10.37,2013-08-24 20:44:00,
2013-08-24 16:49:00,81.1,73.6,30.13,East,92,4.0,4.0,78,0.00,BKN,SKC,0.15,153.0,WeatherDisplay:10.37,2013-08-24 20:49:00,
2013-08-24 16:54:00,81.1,73.6,30.13,ESE,111,2.3,2.3,78,0.00,BKN,SKC,0.15,74.0,WeatherDisplay:10.37,2013-08-24 20:54:00,
2013-08-24 16:59:00,80.9,73.0,30.13,ENE,78,5.8,5.8,77,0.00,BKN,SKC,0.15,91.0,WeatherDisplay:10.37,2013-08-24 20:59:00,
2013-08-24 17:04:00,80.6,73.1,30.13,East,87,2.3,2.3,78,0.00,SCT,SKC,0.15,146.0,WeatherDisplay:10.37,2013-08-24 21:04:00,
2013-08-24 17:09:00,80.8,72.9,30.13,East,85,4.6,4.6,77,0.00,SCT,SKC,0.15,183.0,WeatherDisplay:10.37,2013-08-24 21:09:00,
2013-08-24 17:14:00,81.4,73.5,30.13,ESE,112,6.9,6.9,77,0.00,SCT,SKC,0.15,462.0,WeatherDisplay:10.37,2013-08-24 21:14:00,
2013-08-24 17:19:00,81.9,74.0,30.13,ESE,103,3.5,3.5,77,0.00,SCT,SKC,0.15,548.0,WeatherDisplay:10.37,2013-08-24 21:19:00,
2013-08-24 17:24:00,82.9,74.6,30.13,East,79,3.5,3.5,76,0.00,SCT,SKC,0.15,471.0,WeatherDisplay:10.37,2013-08-24 21:24:00,
2013-08-24 17:29:00,82.2,73.9,30.13,East,101,3.5,3.5,76,0.00,SCT,SKC,0.15,74.0,WeatherDisplay:10.37,2013-08-24 21:29:00,
2013-08-24 17:34:00,80.6,73.9,30.13,ENE,67,1.2,1.2,80,0.00,SCT,SKC,0.15,60.0,WeatherDisplay:10.37,2013-08-24 21:34:00,
2013-08-24 17:39:00,79.7,73.7,30.13,ESE,111,2.3,2.3,82,0.00,SCT,SKC,0.15,65.0,WeatherDisplay:10.37,2013-08-24 21:39:00,
2013-08-24 17:44:00,79.3,73.7,30.13,East,82,2.3,2.3,83,0.00,SCT,SKC,0.15,118.0,WeatherDisplay:10.37,2013-08-24 21:44:00,
2013-08-24 17:49:00,79.3,73.3,30.13,East,84,2.3,2.3,82,0.00,SCT,SKC,0.15,290.0,WeatherDisplay:10.37,2013-08-24 21:49:00,
2013-08-24 17:54:00,80.1,74.1,30.13,East,96,6.0,6.0,82,0.00,SCT,SKC,0.15,69.0,WeatherDisplay:10.37,2013-08-24 21:54:00,
2013-08-24 17:59:00,80.1,73.7,30.13,East,82,3.5,3.5,81,0.00,SCT,SKC,0.15,53.0,WeatherDisplay:10.37,2013-08-24 21:59:00,
2013-08-24 18:04:00,79.7,73.0,30.13,ENE,73,2.0,2.0,80,0.00,BKN,SKC,0.15,26.0,WeatherDisplay:10.37,2013-08-24 22:04:00,
2013-08-24 18:09:00,79.5,73.2,30.13,ENE,69,5.8,5.8,81,0.00,BKN,SKC,0.15,37.0,WeatherDisplay:10.37,2013-08-24 22:09:00,
2013-08-24 18:14:00,79.4,72.7,30.13,East,88,3.5,3.5,80,0.00,BKN,SKC,0.15,54.0,WeatherDisplay:10.37,2013-08-24 22:14:00,
2013-08-24 18:19:00,79.5,72.8,30.13,ENE,75,2.3,2.3,80,0.00,BKN,SKC,0.15,70.0,WeatherDisplay:10.37,2013-08-24 22:19:00,
2013-08-24 18:24:00,79.4,72.7,30.13,ESE,105,4.6,4.6,80,0.00,BKN,SKC,0.15,47.0,WeatherDisplay:10.37,2013-08-24 22:24:00,
2013-08-24 18:29:00,79.4,71.9,30.13,East,95,3.5,3.5,78,0.00,BKN,SKC,0.15,46.0,WeatherDisplay:10.37,2013-08-24 22:29:00,
2013-08-24 18:34:00,79.3,72.2,30.13,East,93,4.6,4.6,79,0.00,BKN,SKC,0.15,37.0,WeatherDisplay:10.37,2013-08-24 22:34:00,
2013-08-24 18:39:00,79.1,72.0,30.13,ENE,74,4.6,4.6,79,0.00,BKN,SKC,0.15,33.0,WeatherDisplay:10.37,2013-08-24 22:39:00,
2013-08-24 18:44:00,78.9,71.8,30.13,ENE,66,5.0,5.0,79,0.00,BKN,SKC,0.15,42.0,WeatherDisplay:10.37,2013-08-24 22:44:00,
2013-08-24 18:49:00,78.8,71.7,30.13,ENE,74,6.9,6.9,79,0.00,BKN,SKC,0.15,37.0,WeatherDisplay:10.37,2013-08-24 22:49:00,
2013-08-24 18:54:00,78.8,71.7,30.13,SSE,157,4.6,4.6,79,0.00,BKN,SKC,0.15,33.0,WeatherDisplay:10.37,2013-08-24 22:54:00,
2013-08-24 18:59:00,78.7,71.6,30.13,ENE,67,6.9,6.9,79,0.00,BKN,SKC,0.15,33.0,WeatherDisplay:10.37,2013-08-24 22:59:00,
2013-08-24 19:04:00,78.7,71.3,30.13,ESE,111,5.8,5.8,78,0.00,SCT,SKC,0.15,28.0,WeatherDisplay:10.37,2013-08-24 23:04:00,
2013-08-24 19:09:00,78.6,71.5,30.13,East,95,3.5,3.5,79,0.00,SCT,SKC,0.15,26.0,WeatherDisplay:10.37,2013-08-24 23:09:00,
2013-08-24 19:14:00,78.5,71.4,30.13,East,85,2.3,2.3,79,0.00,SCT,SKC,0.15,25.0,WeatherDisplay:10.37,2013-08-24 23:14:00,
2013-08-24 19:19:00,78.3,71.6,30.13,East,96,1.2,1.2,80,0.00,SCT,SKC,0.15,21.0,WeatherDisplay:10.37,2013-08-24 23:19:00,
2013-08-24 19:24:00,78.2,71.9,30.13,ESE,115,2.3,2.3,81,0.00,SCT,SKC,0.15,19.0,WeatherDisplay:10.37,2013-08-24 23:24:00,
2013-08-24 19:29:00,78.1,71.8,30.14,East,90,2.3,2.3,81,0.00,SCT,SKC,0.15,18.0,WeatherDisplay:10.37,2013-08-24 23:29:00,
2013-08-24 19:34:00,78.1,72.2,30.14,NE,53,1.2,0.0,82,0.00,SCT,SKC,0.15,14.0,WeatherDisplay:10.37,2013-08-24 23:34:00,
2013-08-24 19:39:00,78.1,72.2,30.14,ENE,71,3.5,3.5,82,0.00,SCT,SKC,0.15,11.0,WeatherDisplay:10.37,2013-08-24 23:39:00,
2013-08-24 19:44:00,78.0,71.7,30.14,NW,321,4.6,4.6,81,0.00,SCT,SKC,0.15,9.0,WeatherDisplay:10.37,2013-08-24 23:44:00,
2013-08-24 19:49:00,77.9,71.6,30.14,SE,145,3.5,3.5,81,0.00,SCT,SKC,0.15,5.0,WeatherDisplay:10.37,2013-08-24 23:49:00,
2013-08-24 19:54:00,77.8,71.9,30.14,NNE,28,3.5,3.5,82,0.00,SCT,SKC,0.15,0.0,WeatherDisplay:10.37,2013-08-24 23:54:00,
2013-08-24 19:59:00,77.6,71.7,30.15,ENE,61,1.2,0.0,82,0.00,SCT,SKC,0.15,0.0,WeatherDisplay:10.37,2013-08-24 23:59:00,
2013-08-24 20:04:00,77.5,71.6,30.15,ENE,61,0.0,0.0,82,0.00,SCT,SKC,0.15,0.0,WeatherDisplay:10.37,2013-08-25 00:04:00,
2013-08-24 20:09:00,77.4,71.8,30.16,ENE,77,1.2,0.0,83,0.00,SCT,SKC,0.15,0.0,WeatherDisplay:10.37,2013-08-25 00:09:00,
2013-08-24 20:14:00,77.3,71.7,30.16,ENE,77,0.0,0.1,83,0.00,SCT,SKC,0.15,0.0,WeatherDisplay:10.37,2013-08-25 00:14:00,
2013-08-24 20:19:00,77.3,71.7,30.16,ENE,74,1.2,0.0,83,0.00,SCT,SKC,0.15,0.0,WeatherDisplay:10.37,2013-08-25 00:19:00,
2013-08-24 20:24:00,77.3,71.7,30.16,ENE,74,2.3,2.3,83,0.00,SCT,SKC,0.15,0.0,WeatherDisplay:10.37,2013-08-25 00:24:00,
2013-08-24 20:29:00,77.2,71.6,30.16,East,93,2.0,2.0,83,0.00,SCT,SKC,0.15,0.0,WeatherDisplay:10.37,2013-08-25 00:29:00,
2013-08-24 20:34:00,77.2,71.6,30.16,East,93,2.3,2.3,83,0.00,SCT,SKC,0.15,0.0,WeatherDisplay:10.37,2013-08-25 00:34:00,
2013-08-24 20:39:00,77.1,71.9,30.17,East,84,1.2,1.2,84,0.00,SCT,SKC,0.15,0.0,WeatherDisplay:10.37,2013-08-25 00:39:00,
2013-08-24 20:44:00,76.8,71.6,30.17,East,84,1.2,1.2,84,0.00,SCT,SKC,0.15,0.0,WeatherDisplay:10.37,2013-08-25 00:44:00,
2013-08-24 20:49:00,76.6,71.4,30.17,East,84,2.3,2.3,84,0.00,SCT,SKC,0.15,0.0,WeatherDisplay:10.37,2013-08-25 00:49:00,
2013-08-24 20:54:00,76.5,71.7,30.17,East,84,0.0,0.0,85,0.00,SCT,SKC,0.15,0.0,WeatherDisplay:10.37,2013-08-25 00:54:00,
2013-08-24 20:59:00,76.3,71.5,30.17,East,84,1.2,1.2,85,0.00,SCT,SKC,0.15,0.0,WeatherDisplay:10.37,2013-08-25 00:59:00,
2013-08-24 21:04:00,76.2,71.7,30.17,East,84,1.2,1.2,86,0.00,BKN,SKC,0.15,0.0,WeatherDisplay:10.37,2013-08-25 01:04:00,
2013-08-24 21:09:00,76.2,71.7,30.17,ENE,70,2.3,2.3,86,0.00,BKN,SKC,0.15,0.0,WeatherDisplay:10.37,2013-08-25 01:09:00,
2013-08-24 21:14:00,76.0,71.5,30.17,ENE,70,1.2,0.0,86,0.00,BKN,SKC,0.15,0.0,WeatherDisplay:10.37,2013-08-25 01:14:00,
2013-08-24 21:19:00,75.9,71.8,30.17,East,79,0.0,0.0,87,0.00,BKN,SKC,0.15,0.0,WeatherDisplay:10.37,2013-08-25 01:19:00,
2013-08-24 21:24:00,75.8,71.7,30.17,NNE,29,1.2,1.4,87,0.00,BKN,SKC,0.15,0.0,WeatherDisplay:10.37,2013-08-25 01:24:00,
2013-08-24 21:29:00,75.9,71.8,30.18,ENE,69,2.3,2.3,87,0.00,BKN,SKC,0.15,0.0,WeatherDisplay:10.37,2013-08-25 01:29:00,
2013-08-24 21:35:00,76.0,71.8,30.17,East,89,1.2,1.2,87,0.00,BKN,SKC,0.15,0.0,WeatherDisplay:10.37,2013-08-25 01:35:00,
2013-08-24 21:40:00,76.0,71.8,30.17,ENE,67,2.3,2.3,87,0.00,BKN,SKC,0.15,0.0,WeatherDisplay:10.37,2013-08-25 01:40:00,
2013-08-24 21:45:00,75.7,71.9,30.17,ENE,63,0.0,1.0,88,0.00,BKN,SKC,0.15,0.0,WeatherDisplay:10.37,2013-08-25 01:45:00,
2013-08-24 21:50:00,75.7,71.9,30.17,East,91,1.2,1.2,88,0.00,BKN,SKC,0.15,0.0,WeatherDisplay:10.37,2013-08-25 01:50:00,
2013-08-24 21:55:00,75.8,71.7,30.17,East,86,1.2,1.2,87,0.00,BKN,SKC,0.15,0.0,WeatherDisplay:10.37,2013-08-25 01:55:00,
2013-08-24 22:00:00,75.8,71.7,30.17,East,90,0.0,2.0,87,0.00,BKN,SKC,0.15,0.0,WeatherDisplay:10.37,2013-08-25 02:00:00,
2013-08-24 22:05:00,75.8,71.7,30.17,ENE,66,2.3,2.3,87,0.00,BKN,SKC,0.15,0.0,WeatherDisplay:10.37,2013-08-25 02:05:00,
2013-08-24 22:10:00,75.9,71.4,30.17,NE,48,2.3,0.0,86,0.00,BKN,SKC,0.15,0.0,WeatherDisplay:10.37,2013-08-25 02:10:00,
2013-08-24 22:15:00,75.9,71.4,30.17,NE,53,0.0,2.0,86,0.00,BKN,SKC,0.15,0.0,WeatherDisplay:10.37,2013-08-25 02:15:00,
2013-08-24 22:20:00,75.8,71.3,30.18,East,86,0.0,0.0,86,0.00,BKN,SKC,0.15,0.0,WeatherDisplay:10.37,2013-08-25 02:20:00,
2013-08-24 22:25:00,75.6,71.5,30.18,East,86,0.0,0.0,87,0.00,BKN,SKC,0.15,0.0,WeatherDisplay:10.37,2013-08-25 02:25:00,
2013-08-24 22:30:00,75.4,71.3,30.18,NNW,333,0.0,0.0,87,0.00,BKN,SKC,0.15,0.0,WeatherDisplay:10.37,2013-08-25 02:30:00,
2013-08-24 22:35:00,75.0,71.2,30.18,NNW,333,0.0,0.0,88,0.00,BKN,SKC,0.15,0.0,WeatherDisplay:10.37,2013-08-25 02:35:00,
2013-08-24 22:40:00,74.7,70.9,30.19,NNW,333,0.0,0.0,88,0.00,BKN,SKC,0.15,0.0,WeatherDisplay:10.37,2013-08-25 02:40:00,
2013-08-24 22:45:00,74.4,70.9,30.19,NNW,333,0.0,0.0,89,0.00,BKN,SKC,0.15,0.0,WeatherDisplay:10.37,2013-08-25 02:45:00,
2013-08-24 22:50:00,74.3,71.2,30.19,NNW,333,0.0,0.0,90,0.00,BKN,SKC,0.15,0.0,WeatherDisplay:10.37,2013-08-25 02:50:00,
2013-08-24 22:55:00,74.1,71.0,30.19,NNW,333,0.0,0.0,90,0.00,BKN,SKC,0.15,0.0,WeatherDisplay:10.37,2013-08-25 02:55:00,
2013-08-24 23:00:00,73.9,71.1,30.19,NNW,333,0.0,0.0,91,0.00,BKN,SKC,0.15,0.0,WeatherDisplay:10.37,2013-08-25 03:00:00,
2013-08-24 23:05:00,73.7,70.9,30.19,NNW,333,0.0,0.0,91,0.00,FEW,SKC,0.15,0.0,WeatherDisplay:10.37,2013-08-25 03:05:00,
2013-08-24 23:10:00,73.5,70.8,30.19,NNW,333,0.0,0.0,91,0.00,FEW,SKC,0.15,0.0,WeatherDisplay:10.37,2013-08-25 03:10:00,
2013-08-24 23:15:00,73.4,70.9,30.19,NNW,333,0.0,0.0,92,0.00,FEW,SKC,0.15,0.0,WeatherDisplay:10.37,2013-08-25 03:15:00,
2013-08-24 23:20:00,73.3,70.8,30.19,NNW,333,0.0,0.0,92,0.00,FEW,SKC,0.15,0.0,WeatherDisplay:10.37,2013-08-25 03:20:00,
2013-08-24 23:25:00,73.2,70.7,30.19,NNW,333,1.2,1.2,92,0.00,FEW,SKC,0.15,0.0,WeatherDisplay:10.37,2013-08-25 03:25:00,
2013-08-24 23:30:00,73.2,70.8,30.20,North,349,0.0,3.0,92,0.00,FEW,SKC,0.15,0.0,WeatherDisplay:10.37,2013-08-25 03:30:00,
2013-08-24 23:35:00,73.3,70.8,30.20,NNE,26,0.0,0.2,92,0.00,FEW,SKC,0.15,0.0,WeatherDisplay:10.37,2013-08-25 03:35:00,
2013-08-24 23:40:00,73.3,70.5,30.20,NNE,27,0.0,1.0,91,0.00,FEW,SKC,0.15,0.0,WeatherDisplay:10.37,2013-08-25 03:40:00,
2013-08-24 23:45:00,73.3,70.5,30.20,NE,45,0.0,0.0,91,0.00,FEW,SKC,0.15,0.0,WeatherDisplay:10.37,2013-08-25 03:45:00,
2013-08-24 23:50:00,73.2,70.5,30.20,NNE,32,0.0,1.0,91,0.00,FEW,SKC,0.15,0.0,WeatherDisplay:10.37,2013-08-25 03:50:00,
2013-08-24 23:55:00,73.3,70.2,30.20,East,88,1.2,1.2,90,0.00,FEW,SKC,0.15,0.0,WeatherDisplay:10.37,2013-08-25 03:55:00,